Wind_Speed
18 17 17 17 17 17 17 18 18 18 19 19 18 17 17 17 17 17 18 18 18 18 17 16 15 15 14 14 13 13 14 15 15 15 15 15 15 15 15 15 14 12
20 20 19 19 20 20 20 20 20 20 20 20 19 18 17 17 18 18 18 18 19 19 19 18 17 17 17 16 16 16 15 15 15 15 15 14 14 14 15 15 14 12
22 23 23 23 22 22 22 22 23 23 22 22 22 22 21 20 19 19 19 19 20 20 21 21 20 19 19 19 19 19 18 18 16 15 15 15 15 15 14 14 14 12
27 26 26 26 25 25 24 24 25 25 24 24 24 23 23 22 21 21 21 21 20 21 21 21 20 20 20 20 21 21 20 20 19 18 17 17 17 17 16 15 15 14
29 29 28 28 27 26 26 26 26 25 25 25 24 23 23 24 24 23 23 22 21 21 21 20 20 20 20 21 21 21 21 20 20 20 20 20 19 19 18 17 17 16
29 29 29 29 28 28 28 27 27 25 25 24 23 23 23 24 24 24 24 24 22 21 21 20 20 20 20 21 21 22 21 21 20 20 20 21 20 19 19 18 18 18
27 27 27 28 28 28 28 27 27 26 25 23 22 22 22 22 23 23 24 24 23 22 21 19 19 19 19 19 19 21 22 21 21 20 20 20 19 18 18 18 18 18
27 28 28 28 28 27 27 26 25 25 24 23 23 22 21 20 20 20 21 23 24 23 22 20 18 17 18 16 16 18 20 22 22 21 21 20 19 19 18 17 17 17
28 28 27 28 28 28 27 26 25 25 24 24 23 22 21 20 18 17 18 20 22 23 23 22 19 17 16 14 15 17 18 20 22 22 22 21 20 19 18 16 17 17
27 27 27 27 27 27 27 27 26 26 25 24 23 22 21 20 18 17 16 17 19 21 23 23 21 17 15 13 14 16 16 17 19 20 21 21 20 19 18 18 18 18
25 26 27 26 25 25 25 26 26 26 25 24 23 22 21 20 19 19 17 16 17 18 21 22 21 18 15 13 13 14 15 15 16 17 18 19 19 18 17 17 18 18
22 23 24 24 24 24 24 25 25 24 23 23 23 22 21 20 20 19 18 16 15 16 18 19 19 17 14 11 11 13 13 14 14 15 15 16 17 17 17 16 16 16
19 21 21 22 23 23 22 22 23 23 21 21 21 21 20 20 19 18 17 16 14 14 16 18 18 18 13 8 9 11 11 12 14 14 14 15 15 16 16 16 15 15
18 19 19 20 21 21 21 21 21 21 20 19 19 19 19 19 18 18 16 15 14 12 13 16 18 20 15 7 6 12 12 12 14 14 14 14 14 15 16 16 15 15
17 18 18 19 20 20 20 21 21 20 19 18 18 18 18 18 17 16 15 15 14 11 11 13 17 23 19 7 6 12 13 14 16 16 16 16 15 15 15 16 16 14
16 17 18 19 19 19 19 20 20 19 19 18 18 17 17 17 16 16 15 14 14 12 11 12 16 22 21 10 7 11 12 15 16 16 17 17 15 15 14 14 16 14
16 17 17 18 19 19 18 19 18 18 17 17 17 16 16 16 16 16 15 14 13 12 10 11 14 20 20 13 10 10 11 15 16 15 16 15 14 14 11 10 13 14
17 17 16 17 20 19 18 18 18 17 16 16 16 15 15 15 16 16 15 14 13 11 9 9 10 17 19 14 10 10 11 15 17 16 15 14 14 14 12 11 12 12
17 17 17 18 19 19 18 17 17 16 15 14 14 14 14 15 15 14 14 14 13 12 10 8 6 11 18 17 12 11 11 16 17 16 15 14 14 14 13 13 12 10
15 16 16 16 16 16 17 16 15 15 14 13 13 12 13 14 14 14 13 13 13 13 11 10 7 6 13 18 14 10 11 16 17 15 15 14 13 13 12 12 12 11
13 14 16 16 14 14 16 15 13 14 14 12 12 11 10 12 12 12 13 13 13 14 13 12 10 8 8 14 16 12 11 17 17 15 15 14 12 13 12 10 11 11
12 13 15 16 14 14 15 14 12 13 12 12 12 10 8 10 11 11 12 12 12 13 14 14 13 11 9 11 15 14 14 16 14 12 14 14 11 12 11 9 10 11
13 13 14 14 15 15 15 13 12 11 11 11 13 11 8 9 10 9 9 12 13 13 14 15 15 15 13 12 14 17 18 15 10 8 11 11 10 11 11 9 11 12
14 13 13 15 16 16 15 15 14 12 10 11 12 11 9 9 9 7 7 9 12 13 14 16 17 17 16 14 14 17 18 15 9 7 9 8 7 9 10 9 12 13
11 12 14 16 17 16 16 16 16 14 12 12 11 9 9 8 8 8 8 7 10 13 14 15 17 18 17 16 15 16 17 14 9 8 9 8 6 8 10 10 12 13
10 13 17 17 16 16 16 15 15 15 14 14 13 10 9 9 10 10 11 10 10 12 14 15 16 18 18 17 16 16 16 15 11 8 9 9 7 8 10 11 10 10
Wind_Direction
56 57 55 56 55 51 47 42 34 31 28 23 19 16 19 26 31 37 46 54 58 63 65 66 69 70 69 69 73 72 71 74 76 76 79 78 75 76 77 77 75 70
55 57 57 57 58 58 57 53 48 43 38 31 28 28 30 33 34 38 45 52 56 58 61 61 62 66 68 68 73 75 71 71 72 75 79 75 71 72 72 71 68 62
60 59 59 57 57 59 60 60 56 52 48 43 40 37 35 36 38 41 45 50 54 56 59 58 56 62 69 70 71 71 70 70 68 67 71 72 71 70 67 69 70 64
62 60 60 58 58 59 60 60 58 55 52 48 44 40 38 38 40 43 46 48 50 53 53 50 52 60 66 68 68 66 66 68 68 68 70 70 71 70 64 65 71 71
63 61 60 58 56 56 56 56 55 54 53 50 47 45 41 39 39 41 44 46 47 50 49 42 45 53 57 61 62 62 62 62 64 68 69 67 68 69 66 63 67 67
62 62 61 59 57 55 54 53 51 50 50 49 47 46 43 40 39 38 41 44 45 48 47 39 37 42 48 53 54 55 56 56 58 62 64 63 63 66 67 64 64 64
54 56 57 58 58 56 54 52 51 49 47 46 46 45 43 39 38 38 39 42 44 46 45 38 31 30 37 41 42 45 49 50 53 56 57 58 58 61 63 61 60 61
50 49 49 51 52 52 49 48 47 47 45 45 45 45 45 41 38 37 39 43 44 44 43 41 33 24 25 30 32 35 40 42 45 49 50 51 53 54 55 57 57 57
48 45 43 44 44 43 42 41 41 42 43 44 43 42 45 46 43 40 40 43 45 44 43 43 39 27 20 26 31 31 32 35 38 42 44 44 45 46 47 52 53 51
46 44 42 40 38 37 37 37 37 38 39 40 40 39 41 43 44 43 42 45 46 45 43 43 42 36 26 24 29 30 29 30 33 36 39 41 42 41 41 45 47 45
43 42 41 39 37 35 34 34 34 33 34 35 35 36 36 36 38 38 40 45 49 47 45 43 42 40 35 28 26 29 28 28 29 31 34 38 40 41 40 42 44 43
37 37 37 36 34 33 31 30 31 30 30 31 31 32 32 32 34 34 34 39 47 50 50 47 43 40 39 32 24 26 29 27 28 29 30 32 36 39 40 41 43 42
34 32 32 30 29 29 26 25 26 26 27 27 27 29 29 29 30 32 32 33 37 44 46 45 42 37 39 44 26 22 30 32 30 28 27 28 29 32 37 39 40 41
33 30 28 26 26 25 22 21 21 21 23 23 23 26 27 27 27 28 30 32 32 36 39 40 38 31 32 50 29 19 28 34 32 30 25 24 24 24 27 33 36 39
29 27 24 22 21 20 18 17 16 15 17 18 19 20 22 24 24 23 26 29 29 33 37 40 36 29 30 48 33 21 28 30 27 26 21 17 18 17 17 21 24 29
23 20 18 17 16 14 12 12 12 11 11 12 14 14 14 18 19 20 22 24 24 28 36 42 39 34 36 49 42 24 23 25 22 19 16 12 10 10 8 9 12 15
17 13 11 10 9 9 7 5 5 7 6 7 11 10 9 11 13 14 17 19 20 22 30 40 41 38 37 40 42 26 10 15 18 11 10 10 6 6 2 358 1 3
9 7 3 2 3 3 2 359 359 2 2 3 7 6 4 7 9 9 9 13 15 16 22 30 38 42 34 26 41 43 9 360 4 2 3 4 360 359 356 353 354 353
1 1 358 356 357 356 356 355 353 356 357 357 1 1 1 4 6 6 4 6 7 8 14 11 14 39 30 14 24 45 13 349 349 354 356 354 351 350 348 349 350 347
354 355 353 351 350 349 350 350 348 350 352 352 354 355 355 359 1 2 0 0 359 357 1 357 344 5 16 6 9 31 15 350 345 345 346 347 347 342 337 340 343 344
349 347 347 346 344 343 346 347 344 345 347 347 348 349 348 350 354 355 354 353 352 348 346 346 341 336 345 353 359 8 3 352 349 343 338 340 341 334 330 332 335 338
345 341 342 341 340 339 341 342 340 339 341 341 342 342 341 341 344 346 346 344 343 340 337 335 336 335 326 334 346 350 347 349 352 345 335 334 333 328 326 327 327 330
340 338 337 335 336 336 336 335 334 333 334 334 335 337 333 333 335 335 334 335 333 333 332 330 330 333 329 326 337 343 341 343 351 346 333 328 323 323 322 321 322 323
335 334 332 331 332 332 330 330 330 329 328 328 329 328 324 322 325 324 321 325 324 323 325 324 323 325 326 327 334 340 340 339 344 344 332 321 315 319 317 314 319 322
330 329 329 328 327 326 325 325 325 323 323 323 321 319 318 318 319 318 315 314 314 313 314 316 316 317 319 322 329 336 339 337 339 342 332 320 312 316 313 310 317 320
327 326 326 325 322 320 320 319 318 317 316 316 316 315 314 314 313 310 307 306 305 305 306 308 310 312 314 317 321 328 335 336 336 338 331 321 313 313 312 310 314 317
Height
843 842 841 839 838 838 838 837 837 836 835 835 834 833 832 830 827 825 822 820 818 816 814 813 812 810 809 807 806 805 804 803 802 801 800 799 798 798 797 796 796 796
847 845 844 842 841 840 839 838 838 837 837 837 836 835 834 832 830 827 824 822 820 819 817 816 814 812 810 809 808 807 806 805 804 803 801 800 800 800 799 798 798 798
850 849 848 846 844 843 841 840 839 838 838 838 837 837 836 835 832 829 827 824 822 821 819 818 817 815 813 811 810 809 808 807 806 805 803 802 802 801 800 800 799 799
854 852 851 850 848 847 844 842 841 840 839 839 839 839 839 838 835 832 829 827 825 823 821 821 820 818 816 814 813 812 811 810 808 807 806 805 804 803 802 802 801 801
857 856 854 854 852 851 848 846 844 843 841 841 840 841 841 840 838 835 832 829 827 826 825 825 823 821 819 817 816 815 814 813 811 810 808 807 806 805 804 804 804 803
861 859 857 856 855 854 852 849 848 847 845 843 842 842 842 842 841 839 836 833 830 829 828 828 827 825 823 821 819 818 817 816 815 813 811 810 809 808 807 807 806 804
864 862 860 859 857 856 854 852 851 850 849 847 845 843 843 844 845 843 840 837 834 832 831 831 830 828 826 824 823 822 821 819 818 816 814 813 812 811 810 809 808 807
868 866 864 862 860 858 857 855 853 852 851 850 848 845 843 844 847 847 844 840 837 835 834 833 832 832 830 828 827 825 823 822 820 819 817 816 815 814 813 812 810 809
871 869 868 866 864 862 860 858 857 855 854 852 851 849 846 846 848 848 846 843 840 839 837 835 834 834 833 832 830 828 826 825 823 822 821 819 818 817 815 814 812 811
874 872 871 869 868 866 864 861 860 858 856 855 853 852 850 849 849 849 846 843 842 841 839 837 836 835 835 834 832 830 828 827 826 825 824 822 821 820 818 817 815 814
877 875 873 872 871 869 867 865 862 861 859 858 856 855 854 852 851 849 847 845 843 841 840 839 838 837 837 836 834 832 831 830 829 827 826 825 823 822 821 819 818 816
880 878 876 875 873 871 869 867 865 863 861 860 858 857 856 855 853 851 849 847 845 843 841 840 840 839 838 837 836 834 833 831 831 829 828 827 826 824 823 822 820 819
882 881 879 878 876 874 872 870 868 865 863 862 860 859 857 856 855 853 851 849 847 845 843 842 841 840 839 838 837 835 834 833 832 831 831 830 829 827 825 824 822 821
884 883 881 880 878 876 874 872 870 868 865 864 862 860 858 857 855 854 852 850 849 847 846 844 843 841 839 838 838 836 834 833 832 832 832 832 831 829 828 826 824 822
885 884 882 881 879 877 875 873 872 869 867 865 863 861 859 857 856 854 853 851 850 849 847 846 845 843 840 839 838 837 835 833 832 832 833 832 832 831 829 828 826 824
885 884 883 881 879 878 876 874 872 870 868 866 863 861 859 858 856 855 854 852 851 849 848 847 846 843 842 840 839 838 836 834 833 833 833 833 833 832 831 829 828 826
886 884 883 882 880 878 876 875 873 870 869 866 864 862 860 859 857 856 854 853 851 850 848 848 846 844 843 843 840 838 837 835 835 835 834 833 833 833 832 831 829 828
885 884 883 881 880 878 876 875 873 870 869 867 865 863 861 859 858 856 855 853 852 850 849 848 847 845 844 844 841 838 837 836 836 836 835 834 833 833 833 832 831 829
885 884 883 881 879 878 876 874 872 870 869 867 865 863 861 860 858 857 855 854 852 851 849 848 847 845 844 844 842 839 837 837 837 836 835 834 834 834 834 832 831 830
885 884 883 881 879 878 876 875 873 871 869 867 865 864 862 860 859 857 856 854 853 852 850 849 847 845 844 844 843 840 837 837 837 836 836 835 835 835 834 832 831 829
885 884 883 881 879 878 876 875 873 871 869 867 865 864 862 861 859 857 856 855 853 852 850 849 847 845 844 843 843 840 837 837 837 837 836 836 835 834 833 832 831 829
885 884 882 881 880 878 877 875 873 871 870 868 866 864 863 861 860 858 856 855 853 852 850 849 847 845 844 843 842 841 838 836 837 837 836 835 834 833 832 831 830 828
885 884 882 881 880 878 876 875 873 871 870 868 866 864 863 861 860 858 857 855 853 852 850 848 846 845 844 842 842 841 838 836 836 836 835 834 833 832 831 830 828 827
885 884 883 881 879 877 876 874 872 871 869 867 865 864 863 861 860 858 857 855 853 851 850 848 846 845 843 842 842 841 839 837 836 835 834 833 832 831 830 829 827 825
885 883 882 880 878 877 875 873 871 870 868 866 865 863 862 860 859 857 856 854 853 851 849 847 845 844 843 841 841 840 839 837 835 834 834 833 832 830 829 827 826 824
884 882 881 879 877 875 874 872 870 868 867 865 863 862 861 859 857 856 854 853 851 849 848 846 845 843 841 840 839 839 838 837 835 834 833 832 831 829 828 826 824 823